Location: Gowrie
(35.4119°S, 149.1090°E)
Time: 01:42:39
(UTC+10:00)

ISS - Visible Passes

Search period start: 22 July 2018 00:00
Search period end: 01 August 2018 00:00
Orbit: 402 x 408 km, 51.6° (Epoch: 21 July)

Date Brightness Start Highest point End Pass type
(mag) Time Alt. Az. Time Alt. Az. Time Alt. Az.
25 Jul -3.0 06:34:06 10° NW 06:37:22 58° NE 06:40:40 10° SE visible
26 Jul -1.6 05:42:27 10° N 05:45:18 27° NE 05:48:09 10° ESE visible
27 Jul -0.7 04:51:47 10° NNE 04:53:18 13° NE 04:54:55 10° E visible
27 Jul -3.5 06:26:11 10° WNW 06:29:26 49° SW 06:32:42 10° SE visible
28 Jul -3.7 05:35:48 32° NW 05:37:12 78° NE 05:40:34 10° SE visible
29 Jul -1.2 04:46:39 22° E 04:46:39 22° E 04:48:09 10° ESE visible
29 Jul -2.3 06:19:22 12° W 06:21:36 22° SSW 06:24:19 10° SSE visible
30 Jul -2.8 05:29:53 34° S 05:29:53 34° S 05:32:25 10° SSE visible
31 Jul -0.6 04:40:12 11° SE 04:40:12 11° SE 04:40:18 10° SE visible
31 Jul -1.6 06:12:53 11° SW 06:13:54 12° SSW 06:15:23 10° S visible
